| time (UTC) | temp F | wind direction | speed MPH | gust MPH | rain 1hr in | rain 24hr in | rain mn in | humidity % | barometer mb |
| 20260905024350 | 77 | 7 | 2.0 | 4.0 | 0.00 | 0.00 | 0.00 | 34 | 1020.6 |
| 20260905023846 | 77 | 309 | 2.0 | 4.0 | 0.00 | 0.00 | 0.00 | 33 | 1020.6 |
| 20260905023346 | 77 | 328 | 2.0 | 4.0 | 0.00 | 0.00 | 0.00 | 34 | 1020.6 |
| 20260905023119 | 77 | 323 | 1.0 | 6.0 | 0.00 | 0.00 | 0.00 | 35 | 1020.6 |
| 20260905022619 | 77 | 335 | 1.0 | 6.0 | 0.00 | 0.00 | 0.00 | 35 | 1020.6 |
| 20260905022507 | 77 | 311 | 1.0 | 4.0 | 0.00 | 0.00 | 0.00 | 35 | 1020.6 |
| 20260905021345 | 77 | 330 | 1.0 | 4.0 | 0.00 | 0.00 | 0.00 | 34 | 1020.6 |
| 20260905020846 | 77 | 303 | 1.0 | 3.0 | 0.00 | 0.00 | 0.00 | 34 | 1020.6 |
| 20260905020345 | 77 | 322 | 1.0 | 3.0 | 0.00 | 0.00 | 0.00 | 34 | 1020.6 |
| 20260905015847 | 77 | 326 | 1.0 | 3.0 | 0.00 | 0.00 | 0.00 | 34 | 1020.6 |
| 20260905015343 | 77 | 304 | 0.0 | 2.0 | 0.00 | 0.00 | 0.00 | 34 | 1020.6 |
| 20260905014842 | 77 | 359 | 0.0 | 1.0 | 0.00 | 0.00 | 0.00 | 34 | 1020.6 |
| 20260905014341 | 78 | 359 | 0.0 | 1.0 | 0.00 | 0.00 | 0.00 | 33 | 1020.6 |
| 20260905013842 | 78 | 359 | 0.0 | 2.0 | 0.00 | 0.00 | 0.00 | 33 | 1020.6 |
| 20260905013342 | 79 | 359 | 0.0 | 2.0 | 0.00 | 0.00 | 0.00 | 33 | 1020.6 |
| 20260905012841 | 79 | 1 | 0.0 | 1.0 | 0.00 | 0.00 | 0.00 | 33 | 1020.6 |
| 20260905012340 | 79 | 96 | 0.0 | 0.0 | 0.00 | 0.00 | 0.00 | 33 | 1020.6 |
| 20260905012113 | 79 | 96 | 0.0 | 2.0 | 0.00 | 0.00 | 0.00 | 33 | 1020.6 |
| 20260905011342 | 80 | 96 | 0.0 | 4.0 | 0.00 | 0.00 | 0.00 | 33 | 1020.6 |
| 20260905010841 | 80 | 96 | 0.0 | 4.0 | 0.00 | 0.00 | 0.00 | 32 | 1020.6 |
| 20260905010609 | 80 | 94 | 1.0 | 2.0 | 0.00 | 0.00 | 0.00 | 32 | 1020.6 |
| 20260905005840 | 80 | 84 | 2.0 | 6.0 | 0.00 | 0.00 | 0.00 | 32 | 1020.6 |
| 20260905005338 | 81 | 71 | 3.0 | 6.0 | 0.00 | 0.00 | 0.00 | 31 | 1020.6 |
| 20260905004840 | 81 | 87 | 3.0 | 7.0 | 0.00 | 0.00 | 0.00 | 31 | 1020.6 |
| 20260905004341 | 81 | 79 | 3.0 | 7.0 | 0.00 | 0.00 | 0.00 | 31 | 1020.6 |
| 20260905003838 | 81 | 96 | 4.0 | 7.0 | 0.00 | 0.00 | 0.00 | 31 | 1020.6 |
| 20260905003338 | 82 | 106 | 3.0 | 7.0 | 0.00 | 0.00 | 0.00 | 30 | 1020.6 |
| 20260905002838 | 82 | 111 | 3.0 | 7.0 | 0.00 | 0.00 | 0.00 | 30 | 1020.6 |
| 20260905002338 | 82 | 111 | 4.0 | 7.0 | 0.00 | 0.00 | 0.00 | 30 | 1020.6 |
| 20260905002112 | 83 | 86 | 4.0 | 9.0 | 0.00 | 0.00 | 0.00 | 29 | 1020.6 |
| 20260905001336 | 83 | 103 | 5.0 | 9.0 | 0.00 | 0.00 | 0.00 | 29 | 1020.6 |
| 20260905000837 | 83 | 83 | 5.0 | 9.0 | 0.00 | 0.00 | 0.00 | 28 | 1020.6 |
| 20260905000340 | 84 | 116 | 6.0 | 11.0 | 0.00 | 0.00 | 0.00 | 28 | 1020.6 |
| 20260904235836 | 84 | 98 | 7.0 | 11.0 | 0.00 | 0.00 | 0.00 | 27 | 1020.6 |
| 20260904235609 | 85 | 84 | 6.0 | 10.0 | 0.00 | 0.00 | 0.00 | 26 | 1020.6 |
| 20260904234836 | 85 | 86 | 6.0 | 11.0 | 0.00 | 0.00 | 0.00 | 25 | 1020.6 |
| 20260904234337 | 86 | 84 | 6.0 | 11.0 | 0.00 | 0.00 | 0.00 | 25 | 1020.6 |
| 20260904233838 | 86 | 93 | 6.0 | 10.0 | 0.00 | 0.00 | 0.00 | 25 | 1020.6 |
| 20260904233337 | 86 | 79 | 5.0 | 9.0 | 0.00 | 0.00 | 0.00 | 25 | 1020.6 |
| 20260904232836 | 86 | 66 | 3.0 | 9.0 | 0.00 | 0.00 | 0.00 | 24 | 1020.6 |
| 20260904232334 | 87 | 93 | 1.0 | 7.0 | 0.00 | 0.00 | 0.00 | 22 | 1020.6 |
| 20260904231834 | 87 | 96 | 2.0 | 6.0 | 0.00 | 0.00 | 0.00 | 22 | 1020.6 |
| 20260904231608 | 88 | 138 | 3.0 | 7.0 | 0.00 | 0.00 | 0.00 | 21 | 1020.6 |
| 20260904230836 | 88 | 83 | 3.0 | 7.0 | 0.00 | 0.00 | 0.00 | 20 | 1020.6 |
| 20260904230334 | 89 | 114 | 2.0 | 6.0 | 0.00 | 0.00 | 0.00 | 20 | 1020.6 |
| 20260904225835 | 89 | 78 | 1.0 | 5.0 | 0.00 | 0.00 | 0.00 | 20 | 1020.6 |
| 20260904225335 | 89 | 97 | 1.0 | 6.0 | 0.00 | 0.00 | 0.00 | 20 | 1020.6 |
| 20260904224834 | 89 | 355 | 2.0 | 7.0 | 0.00 | 0.00 | 0.00 | 19 | 1020.6 |
| 20260904224607 | 90 | 94 | 3.0 | 7.0 | 0.00 | 0.00 | 0.00 | 19 | 1020.6 |
| 20260904223832 | 90 | 113 | 3.0 | 7.0 | 0.00 | 0.00 | 0.00 | 19 | 1020.6 |
| 20260904223603 | 90 | 115 | 2.0 | 7.0 | 0.00 | 0.00 | 0.00 | 20 | 1020.6 |
| 20260904223107 | 90 | 135 | 3.0 | 8.0 | 0.00 | 0.00 | 0.00 | 20 | 1020.6 |
| 20260904222602 | 89 | 109 | 3.0 | 9.0 | 0.00 | 0.00 | 0.00 | 20 | 1020.6 |
| 20260904221833 | 90 | 75 | 2.0 | 9.0 | 0.00 | 0.00 | 0.00 | 20 | 1020.6 |
| 20260904221334 | 89 | 98 | 2.0 | 6.0 | 0.00 | 0.00 | 0.00 | 20 | 1020.6 |
| 20260904220832 | 89 | 238 | 3.0 | 6.0 | 0.00 | 0.00 | 0.00 | 20 | 1020.6 |
| 20260904220332 | 89 | 122 | 2.0 | 8.0 | 0.00 | 0.00 | 0.00 | 20 | 1020.6 |
| 20260904215832 | 89 | 79 | 3.0 | 8.0 | 0.00 | 0.00 | 0.00 | 20 | 1020.6 |
| 20260904215334 | 89 | 89 | 4.0 | 9.0 | 0.00 | 0.00 | 0.00 | 20 | 1020.6 |
| 20260904214830 | 89 | 119 | 2.0 | 9.0 | 0.00 | 0.00 | 0.00 | 20 | 1020.6 |
| 20260904214603 | 89 | 94 | 1.0 | 6.0 | 0.00 | 0.00 | 0.00 | 20 | 1020.6 |
| 20260904213832 | 89 | 107 | 1.0 | 5.0 | 0.00 | 0.00 | 0.00 | 19 | 1020.6 |
| 20260904213331 | 90 | 99 | 4.0 | 11.0 | 0.00 | 0.00 | 0.00 | 20 | 1020.6 |
| 20260904212830 | 89 | 83 | 6.0 | 13.0 | 0.00 | 0.00 | 0.00 | 20 | 1020.6 |
| 20260904212330 | 89 | 77 | 5.0 | 13.0 | 0.00 | 0.00 | 0.00 | 20 | 1020.6 |
| 20260904211832 | 89 | 76 | 5.0 | 8.0 | 0.00 | 0.00 | 0.00 | 20 | 1020.6 |
| 20260904211331 | 90 | 70 | 3.0 | 8.0 | 0.00 | 0.00 | 0.00 | 20 | 1020.6 |
| 20260904210831 | 90 | 56 | 2.0 | 6.0 | 0.00 | 0.00 | 0.00 | 20 | 1020.6 |
| 20260904210330 | 89 | 253 | 3.0 | 11.0 | 0.00 | 0.00 | 0.00 | 20 | 1020.6 |
| 20260904205831 | 89 | 119 | 4.0 | 12.0 | 0.00 | 0.00 | 0.00 | 20 | 1020.6 |
| 20260904205329 | 90 | 109 | 3.0 | 16.0 | 0.00 | 0.00 | 0.00 | 20 | 1020.6 |
| 20260904205100 | 90 | 157 | 3.0 | 16.0 | 0.00 | 0.00 | 0.00 | 20 | 1020.6 |
| 20260904204331 | 90 | 98 | 3.0 | 10.0 | 0.00 | 0.00 | 0.00 | 19 | 1020.6 |
| 20260904203829 | 90 | 150 | 5.0 | 10.0 | 0.00 | 0.00 | 0.00 | 19 | 1020.6 |
| 20260904203329 | 90 | 79 | 6.0 | 14.0 | 0.00 | 0.00 | 0.00 | 20 | 1020.6 |
| 20260904202829 | 89 | 73 | 7.0 | 14.0 | 0.00 | 0.00 | 0.00 | 20 | 1020.6 |
| 20260904202330 | 89 | 75 | 7.0 | 13.0 | 0.00 | 0.00 | 0.00 | 20 | 1020.6 |
| 20260904201825 | 89 | 89 | 6.0 | 13.0 | 0.00 | 0.00 | 0.00 | 21 | 1020.6 |
| 20260904201559 | 88 | 101 | 7.0 | 15.0 | 0.00 | 0.00 | 0.00 | 21 | 1020.6 |
| 20260904200826 | 88 | 108 | 8.0 | 17.0 | 0.00 | 0.00 | 0.00 | 20 | 1020.6 |
| 20260904200555 | 88 | 90 | 7.0 | 17.0 | 0.00 | 0.00 | 0.00 | 20 | 1020.6 |
| 20260904195824 | 88 | 103 | 6.0 | 12.0 | 0.00 | 0.00 | 0.00 | 20 | 1020.6 |
| 20260904195323 | 88 | 72 | 4.0 | 10.0 | 0.00 | 0.00 | 0.00 | 20 | 1020.6 |
| 20260904194823 | 88 | 145 | 5.0 | 10.0 | 0.00 | 0.00 | 0.00 | 21 | 1020.6 |
| 20260904194323 | 88 | 163 | 5.0 | 11.0 | 0.00 | 0.00 | 0.00 | 21 | 1020.6 |
| 20260904193820 | 88 | 116 | 6.0 | 13.0 | 0.00 | 0.00 | 0.00 | 20 | 1020.6 |
| 20260904193324 | 89 | 122 | 5.0 | 13.0 | 0.00 | 0.00 | 0.00 | 20 | 1020.6 |
| 20260904192821 | 88 | 80 | 3.0 | 10.0 | 0.00 | 0.00 | 0.00 | 20 | 1020.6 |
| 20260904192318 | 89 | 87 | 3.0 | 10.0 | 0.00 | 0.00 | 0.00 | 21 | 1020.6 |
| 20260904191818 | 89 | 86 | 5.0 | 11.0 | 0.00 | 0.00 | 0.00 | 22 | 1020.6 |
| 20260904191319 | 88 | 96 | 4.0 | 11.0 | 0.00 | 0.00 | 0.00 | 21 | 1020.6 |
| 20260904190817 | 88 | 111 | 3.0 | 8.0 | 0.00 | 0.00 | 0.00 | 20 | 1020.6 |
| 20260904190317 | 88 | 103 | 3.0 | 8.0 | 0.00 | 0.00 | 0.00 | 21 | 1020.6 |
| 20260904185816 | 87 | 85 | 4.0 | 16.0 | 0.00 | 0.00 | 0.00 | 22 | 1020.6 |
| 20260904185548 | 87 | 82 | 4.0 | 16.0 | 0.00 | 0.00 | 0.00 | 21 | 1020.6 |
| 20260904184815 | 87 | 94 | 6.0 | 13.0 | 0.00 | 0.00 | 0.00 | 21 | 1020.6 |
| 20260904184315 | 87 | 117 | 7.0 | 13.0 | 0.00 | 0.00 | 0.00 | 22 | 1020.6 |
| 20260904183817 | 87 | 96 | 6.0 | 12.0 | 0.00 | 0.00 | 0.00 | 21 | 1020.6 |
| 20260904183314 | 87 | 63 | 7.0 | 13.0 | 0.00 | 0.00 | 0.00 | 21 | 1020.6 |
| 20260904182814 | 86 | 72 | 4.0 | 13.0 | 0.00 | 0.00 | 0.00 | 21 | 1020.6 |
| 20260904182315 | 87 | 96 | 4.0 | 11.0 | 0.00 | 0.00 | 0.00 | 21 | 1020.6 |
| 20260904181815 | 86 | 70 | 4.0 | 11.0 | 0.00 | 0.00 | 0.00 | 22 | 1020.6 |
| 20260904181313 | 87 | 107 | 5.0 | 12.0 | 0.00 | 0.00 | 0.00 | 23 | 1020.6 |
| 20260904180813 | 86 | 151 | 6.0 | 12.0 | 0.00 | 0.00 | 0.00 | 22 | 1020.6 |
| 20260904180312 | 86 | 92 | 5.0 | 11.0 | 0.00 | 0.00 | 0.00 | 23 | 1020.6 |
| 20260904175812 | 85 | 90 | 5.0 | 10.0 | 0.00 | 0.00 | 0.00 | 22 | 1020.6 |
| 20260904175313 | 86 | 127 | 4.0 | 11.0 | 0.00 | 0.00 | 0.00 | 22 | 1020.6 |
| 20260904175044 | 86 | 70 | 3.0 | 11.0 | 0.00 | 0.00 | 0.00 | 22 | 1020.6 |
| 20260904174310 | 86 | 70 | 3.0 | 10.0 | 0.00 | 0.00 | 0.00 | 22 | 1020.6 |
| 20260904173812 | 85 | 84 | 3.0 | 10.0 | 0.00 | 0.00 | 0.00 | 22 | 1020.6 |
| 20260904173310 | 85 | 129 | 3.0 | 9.0 | 0.00 | 0.00 | 0.00 | 23 | 1020.6 |
| 20260904172809 | 85 | 126 | 4.0 | 9.0 | 0.00 | 0.00 | 0.00 | 22 | 1020.6 |
| 20260904172308 | 84 | 180 | 5.0 | 9.0 | 0.00 | 0.00 | 0.00 | 24 | 1020.6 |
| 20260904171809 | 84 | 89 | 5.0 | 11.0 | 0.00 | 0.00 | 0.00 | 24 | 1020.6 |
| 20260904171308 | 84 | 105 | 5.0 | 11.0 | 0.00 | 0.00 | 0.00 | 24 | 1020.6 |
| 20260904170808 | 84 | 120 | 6.0 | 11.0 | 0.00 | 0.00 | 0.00 | 24 | 1020.6 |
| 20260904170308 | 85 | 99 | 5.0 | 13.0 | 0.00 | 0.00 | 0.00 | 23 | 1020.6 |
| 20260904165809 | 85 | 88 | 3.0 | 13.0 | 0.00 | 0.00 | 0.00 | 24 | 1020.6 |
| 20260904165309 | 84 | 198 | 2.0 | 7.0 | 0.00 | 0.00 | 0.00 | 24 | 1020.6 |
| 20260904164807 | 84 | 129 | 2.0 | 6.0 | 0.00 | 0.00 | 0.00 | 24 | 1020.6 |
| 20260904164308 | 84 | 116 | 2.0 | 6.0 | 0.00 | 0.00 | 0.00 | 25 | 1020.6 |
| 20260904163809 | 83 | 95 | 3.0 | 6.0 | 0.00 | 0.00 | 0.00 | 26 | 1020.6 |
| 20260904163307 | 83 | 103 | 3.0 | 8.0 | 0.00 | 0.00 | 0.00 | 28 | 1020.6 |
| 20260904162807 | 83 | 106 | 2.0 | 8.0 | 0.00 | 0.00 | 0.00 | 29 | 1020.6 |
| 20260904162310 | 83 | 98 | 1.0 | 4.0 | 0.00 | 0.00 | 0.00 | 29 | 1020.6 |
| 20260904161810 | 82 | 102 | 2.0 | 7.0 | 0.00 | 0.00 | 0.00 | 29 | 1020.6 |
| 20260904161307 | 82 | 75 | 3.0 | 7.0 | 0.00 | 0.00 | 0.00 | 28 | 1020.6 |
| 20260904161039 | 81 | 98 | 3.0 | 9.0 | 0.00 | 0.00 | 0.00 | 29 | 1020.6 |
| 20260904160928 | 81 | 107 | 4.0 | 9.0 | 0.00 | 0.00 | 0.00 | 28 | 1020.6 |
| 20260904155809 | 81 | 72 | 4.0 | 7.0 | 0.00 | 0.00 | 0.00 | 27 | 1020.6 |
| 20260904155308 | 81 | 84 | 4.0 | 7.0 | 0.00 | 0.00 | 0.00 | 27 | 1020.6 |
| 20260904154808 | 81 | 84 | 2.0 | 6.0 | 0.00 | 0.00 | 0.00 | 27 | 1020.6 |
| 20260904154309 | 81 | 117 | 2.0 | 5.0 | 0.00 | 0.00 | 0.00 | 27 | 1020.6 |
| 20260904153809 | 81 | 189 | 2.0 | 5.0 | 0.00 | 0.00 | 0.00 | 28 | 1020.6 |
| 20260904153308 | 81 | 77 | 1.0 | 5.0 | 0.00 | 0.00 | 0.00 | 28 | 1020.6 |
| 20260904152807 | 81 | 96 | 1.0 | 5.0 | 0.00 | 0.00 | 0.00 | 28 | 1020.6 |
| 20260904152308 | 81 | 79 | 1.0 | 3.0 | 0.00 | 0.00 | 0.00 | 28 | 1020.6 |
| 20260904151809 | 80 | 108 | 1.0 | 2.0 | 0.00 | 0.00 | 0.00 | 28 | 1020.6 |
| 20260904151309 | 79 | 115 | 1.0 | 4.0 | 0.00 | 0.00 | 0.00 | 29 | 1020.6 |
| 20260904150809 | 78 | 160 | 1.0 | 5.0 | 0.00 | 0.00 | 0.00 | 29 | 1020.6 |
| 20260904150309 | 78 | 79 | 1.0 | 5.0 | 0.00 | 0.00 | 0.00 | 30 | 1020.6 |
| 20260904145808 | 78 | 120 | 1.0 | 2.0 | 0.00 | 0.00 | 0.00 | 30 | 1020.6 |
| 20260904145307 | 78 | 149 | 0.0 | 2.0 | 0.00 | 0.00 | 0.00 | 29 | 1020.6 |
| 20260904144808 | 77 | 144 | 0.0 | 2.0 | 0.00 | 0.00 | 0.00 | 30 | 1020.6 |
| 20260904144308 | 77 | 235 | 0.0 | 1.0 | 0.00 | 0.00 | 0.00 | 31 | 1020.6 |
| 20260904143805 | 76 | 260 | 0.0 | 2.0 | 0.00 | 0.00 | 0.00 | 32 | 1020.6 |
| 20260904143306 | 75 | 150 | 1.0 | 5.0 | 0.00 | 0.00 | 0.00 | 32 | 1020.6 |
| 20260904142806 | 75 | 108 | 1.0 | 5.0 | 0.00 | 0.00 | 0.00 | 32 | 1020.6 |
| 20260904142306 | 75 | 94 | 2.0 | 6.0 | 0.00 | 0.00 | 0.00 | 31 | 1020.6 |
| 20260904142035 | 75 | 108 | 2.0 | 6.0 | 0.00 | 0.00 | 0.00 | 32 | 1020.6 |
| 20260904141303 | 77 | 111 | 1.0 | 5.0 | 0.00 | 0.00 | 0.00 | 30 | 1020.6 |
| 20260904140804 | 77 | 253 | 0.0 | 2.0 | 0.00 | 0.00 | 0.00 | 28 | 1020.6 |
| 20260904140302 | 76 | 270 | 0.0 | 2.0 | 0.00 | 0.00 | 0.00 | 28 | 1020.6 |
| 20260904135759 | 75 | 259 | 0.0 | 2.0 | 0.00 | 0.00 | 0.00 | 28 | 1020.6 |
| 20260904135259 | 74 | 252 | 1.0 | 5.0 | 0.00 | 0.00 | 0.00 | 29 | 1020.6 |
| 20260904134802 | 73 | 242 | 1.0 | 5.0 | 0.00 | 0.00 | 0.00 | 29 | 1020.6 |
| 20260904134301 | 72 | 148 | 0.0 | 4.0 | 0.00 | 0.00 | 0.00 | 32 | 1020.6 |
| 20260904133800 | 72 | 238 | 0.0 | 1.0 | 0.00 | 0.00 | 0.00 | 33 | 1020.6 |
| 20260904133259 | 71 | 244 | 0.0 | 1.0 | 0.00 | 0.00 | 0.00 | 33 | 1020.6 |
| 20260904132800 | 72 | 244 | 0.0 | 1.0 | 0.00 | 0.00 | 0.00 | 34 | 1020.6 |
| 20260904132300 | 71 | 244 | 0.0 | 0.0 | 0.00 | 0.00 | 0.00 | 34 | 1020.6 |
| 20260904131800 | 70 | 244 | 0.0 | 0.0 | 0.00 | 0.00 | 0.00 | 35 | 1020.6 |
| 20260904131530 | 70 | 244 | 0.0 | 1.0 | 0.00 | 0.00 | 0.00 | 33 | 1020.6 |
| 20260904130757 | 69 | 247 | 0.0 | 1.0 | 0.00 | 0.00 | 0.00 | 34 | 1020.6 |
| 20260904130257 | 67 | 266 | 0.0 | 0.0 | 0.00 | 0.00 | 0.00 | 35 | 1020.6 |
| 20260904125758 | 67 | 267 | 0.0 | 0.0 | 0.00 | 0.00 | 0.00 | 36 | 1020.6 |
| 20260904125258 | 65 | 266 | 0.0 | 0.0 | 0.00 | 0.00 | 0.00 | 37 | 1020.6 |
| 20260904125030 | 65 | 267 | 1.0 | 5.0 | 0.00 | 0.00 | 0.00 | 39 | 1020.6 |
| 20260904124257 | 64 | 267 | 1.0 | 5.0 | 0.00 | 0.00 | 0.00 | 39 | 1020.6 |
| 20260904123758 | 63 | 276 | 0.0 | 3.0 | 0.00 | 0.00 | 0.00 | 41 | 1020.6 |
| 20260904123526 | 62 | 287 | 0.0 | 3.0 | 0.00 | 0.00 | 0.00 | 41 | 1020.6 |
| 20260904122756 | 62 | 254 | 0.0 | 0.0 | 0.00 | 0.00 | 0.00 | 42 | 1020.6 |
| 20260904122529 | 62 | 254 | 0.0 | 0.0 | 0.00 | 0.00 | 0.00 | 42 | 1020.6 |
| 20260904121757 | 63 | 264 | 0.0 | 2.0 | 0.00 | 0.00 | 0.00 | 40 | 1020.6 |
| 20260904121255 | 63 | 264 | 0.0 | 3.0 | 0.00 | 0.00 | 0.00 | 40 | 1020.6 |
| 20260904120756 | 63 | 245 | 0.0 | 3.0 | 0.00 | 0.00 | 0.00 | 40 | 1020.6 |
| 20260904120527 | 63 | 203 | 0.0 | 0.0 | 0.00 | 0.00 | 0.00 | 40 | 1020.6 |
| 20260904115756 | 64 | 217 | 0.0 | 0.0 | 0.00 | 0.00 | 0.00 | 39 | 1020.6 |
| 20260904115254 | 64 | 217 | 0.0 | 0.0 | 0.00 | 0.00 | 0.00 | 39 | 1020.6 |
| 20260904114755 | 65 | 148 | 0.0 | 0.0 | 0.00 | 0.00 | 0.00 | 38 | 1020.6 |
| 20260904114253 | 65 | 141 | 0.0 | 0.0 | 0.00 | 0.00 | 0.00 | 38 | 1020.6 |
| 20260904113753 | 66 | 220 | 0.0 | 0.0 | 0.00 | 0.00 | 0.00 | 36 | 1020.6 |
| 20260904113254 | 66 | 271 | 0.0 | 1.0 | 0.00 | 0.00 | 0.00 | 35 | 1020.6 |
| 20260904112754 | 66 | 271 | 1.0 | 3.0 | 0.00 | 0.00 | 0.00 | 36 | 1020.6 |
| 20260904112253 | 66 | 271 | 1.0 | 3.0 | 0.00 | 0.00 | 0.00 | 36 | 1020.6 |
| 20260904111753 | 64 | 290 | 0.0 | 1.0 | 0.00 | 0.00 | 0.00 | 38 | 1020.6 |
| 20260904111524 | 64 | 290 | 1.0 | 2.0 | 0.00 | 0.00 | 0.00 | 39 | 1020.6 |
| 20260904110754 | 64 | 290 | 1.0 | 3.0 | 0.00 | 0.00 | 0.00 | 40 | 1020.6 |
| 20260904110252 | 65 | 292 | 0.0 | 3.0 | 0.00 | 0.00 | 0.00 | 39 | 1020.6 |
| 20260904105751 | 65 | 255 | 0.0 | 0.0 | 0.00 | 0.00 | 0.00 | 39 | 1020.6 |
| 20260904105252 | 65 | 255 | 0.0 | 0.0 | 0.00 | 0.00 | 0.00 | 38 | 1020.6 |
| 20260904104751 | 65 | 255 | 0.0 | 0.0 | 0.00 | 0.00 | 0.00 | 38 | 1020.6 |
| 20260904104253 | 65 | 255 | 0.0 | 0.0 | 0.00 | 0.00 | 0.00 | 38 | 1020.6 |
| 20260904103751 | 66 | 255 | 0.0 | 0.0 | 0.00 | 0.00 | 0.00 | 38 | 1020.6 |
| 20260904103524 | 66 | 255 | 0.0 | 0.0 | 0.00 | 0.00 | 0.00 | 38 | 1020.6 |
| 20260904103023 | 66 | 255 | 0.0 | 0.0 | 0.00 | 0.00 | 0.00 | 38 | 1020.6 |
| 20260904102524 | 66 | 255 | 0.0 | 0.0 | 0.00 | 0.00 | 0.00 | 38 | 1020.6 |
| 20260904102021 | 66 | 255 | 0.0 | 0.0 | 0.00 | 0.00 | 0.00 | 38 | 1020.6 |
| 20260904101249 | 65 | 255 | 0.0 | 0.0 | 0.00 | 0.00 | 0.00 | 39 | 1020.6 |
| 20260904100753 | 66 | 255 | 0.0 | 0.0 | 0.00 | 0.00 | 0.00 | 39 | 1020.6 |
| 20260904100249 | 66 | 255 | 0.0 | 0.0 | 0.00 | 0.00 | 0.00 | 38 | 1020.6 |
| 20260904095750 | 66 | 255 | 0.0 | 0.0 | 0.00 | 0.00 | 0.00 | 39 | 1020.6 |
| 20260904095250 | 66 | 255 | 0.0 | 2.0 | 0.00 | 0.00 | 0.00 | 37 | 1020.6 |
| 20260904094751 | 67 | 255 | 0.0 | 2.0 | 0.00 | 0.00 | 0.00 | 36 | 1020.6 |
| 20260904094249 | 68 | 283 | 0.0 | 1.0 | 0.00 | 0.00 | 0.00 | 35 | 1020.6 |
| 20260904093749 | 68 | 220 | 0.0 | 0.0 | 0.00 | 0.00 | 0.00 | 35 | 1020.6 |
| 20260904093250 | 69 | 302 | 0.0 | 0.0 | 0.00 | 0.00 | 0.00 | 33 | 1020.6 |
| 20260904093022 | 70 | 302 | 0.0 | 0.0 | 0.00 | 0.00 | 0.00 | 31 | 1020.6 |
| 20260904092252 | 72 | 292 | 1.0 | 3.0 | 0.00 | 0.00 | 0.00 | 30 | 1020.6 |
| 20260904092247 | 71 | 291 | 0.0 | 2.0 | 0.00 | 0.00 | 0.00 | 30 | 1020.6 |
| 20260904091246 | 72 | 279 | 1.0 | 3.0 | 0.00 | 0.00 | 0.00 | 31 | 1020.6 |
| 20260904091020 | 72 | 280 | 1.0 | 3.0 | 0.00 | 0.00 | 0.00 | 31 | 1020.6 |
| 20260904090246 | 71 | 283 | 0.0 | 2.0 | 0.00 | 0.00 | 0.00 | 33 | 1020.6 |
| 20260904085747 | 71 | 255 | 1.0 | 2.0 | 0.00 | 0.00 | 0.00 | 34 | 1020.6 |
| 20260904085249 | 72 | 272 | 2.0 | 4.0 | 0.00 | 0.00 | 0.00 | 34 | 1020.6 |
| 20260904084748 | 72 | 290 | 2.0 | 4.0 | 0.00 | 0.00 | 0.00 | 34 | 1020.6 |
| 20260904084519 | 71 | 269 | 2.0 | 4.0 | 0.00 | 0.00 | 0.00 | 35 | 1020.6 |
| 20260904083748 | 71 | 281 | 2.0 | 5.0 | 0.00 | 0.00 | 0.00 | 35 | 1020.6 |
| 20260904083245 | 69 | 287 | 3.0 | 6.0 | 0.00 | 0.00 | 0.00 | 37 | 1020.6 |
| 20260904083018 | 68 | 285 | 3.0 | 6.0 | 0.00 | 0.00 | 0.00 | 38 | 1020.6 |
| 20260904082246 | 68 | 295 | 2.0 | 5.0 | 0.00 | 0.00 | 0.00 | 38 | 1020.6 |
| 20260904081748 | 69 | 291 | 1.0 | 5.0 | 0.00 | 0.00 | 0.00 | 36 | 1020.6 |
| 20260904081247 | 70 | 278 | 1.0 | 5.0 | 0.00 | 0.00 | 0.00 | 36 | 1020.6 |
| 20260904080745 | 70 | 278 | 2.0 | 5.0 | 0.00 | 0.00 | 0.00 | 36 | 1020.6 |
| 20260904080246 | 71 | 283 | 3.0 | 6.0 | 0.00 | 0.00 | 0.00 | 36 | 1020.6 |
| 20260904075746 | 70 | 271 | 3.0 | 6.0 | 0.00 | 0.00 | 0.00 | 36 | 1020.6 |
| 20260904075516 | 70 | 275 | 3.0 | 5.0 | 0.00 | 0.00 | 0.00 | 36 | 1020.6 |
| 20260904074752 | 72 | 282 | 2.0 | 4.0 | 0.00 | 0.00 | 0.00 | 35 | 1020.6 |
| 20260904074747 | 70 | 295 | 2.0 | 5.0 | 0.00 | 0.00 | 0.00 | 36 | 1020.6 |
| 20260904073744 | 72 | 289 | 3.0 | 7.0 | 0.00 | 0.00 | 0.00 | 35 | 1020.6 |
| 20260904073245 | 71 | 272 | 3.0 | 7.0 | 0.00 | 0.00 | 0.00 | 36 | 1020.6 |
| 20260904072744 | 70 | 286 | 3.0 | 5.0 | 0.00 | 0.00 | 0.00 | 36 | 1020.6 |
| 20260904072241 | 69 | 296 | 2.0 | 5.0 | 0.00 | 0.00 | 0.00 | 37 | 1020.6 |
| 20260904071741 | 71 | 295 | 1.0 | 4.0 | 0.00 | 0.00 | 0.00 | 35 | 1020.6 |
| 20260904071241 | 72 | 281 | 1.0 | 3.0 | 0.00 | 0.00 | 0.00 | 34 | 1020.6 |
| 20260904071014 | 72 | 270 | 1.0 | 3.0 | 0.00 | 0.00 | 0.00 | 34 | 1020.6 |
| 20260904070242 | 72 | 274 | 2.0 | 3.0 | 0.00 | 0.00 | 0.00 | 34 | 1020.6 |
| 20260904065741 | 72 | 278 | 2.0 | 3.0 | 0.00 | 0.00 | 0.00 | 35 | 1020.6 |
| 20260904065241 | 71 | 276 | 1.0 | 3.0 | 0.00 | 0.00 | 0.00 | 35 | 1020.6 |
| 20260904064742 | 71 | 297 | 0.0 | 3.0 | 0.00 | 0.00 | 0.00 | 35 | 1020.6 |
| 20260904064241 | 70 | 283 | 0.0 | 2.0 | 0.00 | 0.00 | 0.00 | 37 | 1020.6 |
| 20260904063741 | 69 | 283 | 0.0 | 2.0 | 0.00 | 0.00 | 0.00 | 38 | 1020.6 |
| 20260904063246 | 69 | 272 | 0.0 | 0.0 | 0.00 | 0.00 | 0.00 | 39 | 1020.6 |
| 20260904063242 | 69 | 234 | 0.0 | 0.0 | 0.00 | 0.00 | 0.00 | 38 | 1020.6 |
| 20260904062240 | 69 | 272 | 0.0 | 0.0 | 0.00 | 0.00 | 0.00 | 39 | 1020.6 |
| 20260904061738 | 69 | 188 | 0.0 | 0.0 | 0.00 | 0.00 | 0.00 | 38 | 1020.6 |
| 20260904061238 | 69 | 150 | 0.0 | 0.0 | 0.00 | 0.00 | 0.00 | 38 | 1020.6 |
| 20260904060740 | 69 | 223 | 1.0 | 4.0 | 0.00 | 0.00 | 0.00 | 37 | 1020.6 |
| 20260904060239 | 70 | 96 | 1.0 | 5.0 | 0.00 | 0.00 | 0.00 | 37 | 1020.6 |
| 20260904055740 | 71 | 143 | 1.0 | 6.0 | 0.00 | 0.00 | 0.00 | 37 | 1020.6 |
| 20260904055509 | 72 | 117 | 1.0 | 6.0 | 0.00 | 0.00 | 0.00 | 36 | 1020.6 |
| 20260904054739 | 73 | 266 | 0.0 | 0.0 | 0.00 | 0.00 | 0.00 | 34 | 1020.6 |
| 20260904054245 | 73 | 267 | 0.0 | 0.0 | 0.00 | 0.00 | 0.00 | 33 | 1020.6 |
| 20260904054239 | 73 | 267 | 0.0 | 0.0 | 0.00 | 0.00 | 0.00 | 33 | 1020.6 |
| 20260904053239 | 73 | 267 | 0.0 | 0.0 | 0.00 | 0.00 | 0.00 | 34 | 1020.6 |
| 20260904052739 | 72 | 193 | 0.0 | 0.0 | 0.00 | 0.00 | 0.00 | 34 | 1020.6 |
| 20260904052239 | 73 | 287 | 0.0 | 0.0 | 0.00 | 0.00 | 0.00 | 34 | 1020.6 |
| 20260904051739 | 73 | 287 | 0.0 | 0.0 | 0.00 | 0.00 | 0.00 | 33 | 1020.6 |
| 20260904051238 | 74 | 287 | 0.0 | 1.0 | 0.00 | 0.00 | 0.00 | 33 | 1020.6 |
| 20260904050739 | 74 | 287 | 0.0 | 5.0 | 0.00 | 0.00 | 0.00 | 33 | 1020.6 |
| 20260904050511 | 74 | 271 | 1.0 | 6.0 | 0.00 | 0.00 | 0.00 | 32 | 1020.6 |
| 20260904050012 | 74 | 302 | 3.0 | 6.0 | 0.00 | 0.00 | 0.00 | 33 | 1020.6 |
| 20260904045239 | 74 | 288 | 3.0 | 6.0 | 0.00 | 0.00 | 0.00 | 33 | 1020.6 |
| 20260904045008 | 73 | 288 | 2.0 | 5.0 | 0.00 | 0.00 | 0.00 | 34 | 1020.6 |
| 20260904044507 | 73 | 292 | 3.0 | 7.0 | 0.00 | 0.00 | 0.00 | 35 | 1020.6 |
| 20260904043736 | 73 | 274 | 3.0 | 7.0 | 0.00 | 0.00 | 0.00 | 34 | 1020.6 |
| 20260904043237 | 73 | 305 | 3.0 | 6.0 | 0.00 | 0.00 | 0.00 | 35 | 1020.6 |
| 20260904043004 | 74 | 286 | 4.0 | 8.0 | 0.00 | 0.00 | 0.00 | 34 | 1020.6 |
| 20260904042232 | 74 | 293 | 5.0 | 9.0 | 0.00 | 0.00 | 0.00 | 33 | 1020.6 |
| 20260904041731 | 74 | 290 | 6.0 | 9.0 | 0.00 | 0.00 | 0.00 | 33 | 1020.6 |
| 20260904041502 | 74 | 309 | 5.0 | 9.0 | 0.00 | 0.00 | 0.00 | 34 | 1020.6 |
| 20260904040730 | 73 | 291 | 5.0 | 8.0 | 0.00 | 0.00 | 0.00 | 35 | 1020.6 |
| 20260904040229 | 73 | 326 | 5.0 | 9.0 | 0.00 | 0.00 | 0.00 | 35 | 1020.6 |
| 20260904035729 | 74 | 287 | 6.0 | 9.0 | 0.00 | 0.00 | 0.00 | 35 | 1020.6 |
| 20260904035226 | 74 | 304 | 6.0 | 9.0 | 0.00 | 0.00 | 0.00 | 34 | 1020.6 |
| 20260904034726 | 74 | 302 | 7.0 | 10.0 | 0.00 | 0.00 | 0.00 | 34 | 1020.6 |
| 20260904034228 | 75 | 305 | 7.0 | 11.0 | 0.00 | 0.00 | 0.00 | 34 | 1020.6 |
| 20260904033726 | 75 | 299 | 7.0 | 11.0 | 0.00 | 0.00 | 0.00 | 34 | 1020.6 |
| 20260904033227 | 74 | 312 | 6.0 | 9.0 | 0.00 | 0.00 | 0.00 | 35 | 1020.6 |
| 20260904032724 | 74 | 297 | 6.0 | 9.0 | 0.00 | 0.00 | 0.00 | 35 | 1020.6 |
| 20260904032458 | 73 | 297 | 6.0 | 9.0 | 0.00 | 0.00 | 0.00 | 35 | 1020.6 |
| 20260904031726 | 74 | 297 | 6.0 | 10.0 | 0.00 | 0.00 | 0.00 | 35 | 1020.6 |
| 20260904031224 | 73 | 314 | 5.0 | 10.0 | 0.00 | 0.00 | 0.00 | 36 | 1020.6 |
| 20260904030724 | 72 | 298 | 5.0 | 9.0 | 0.00 | 0.00 | 0.00 | 36 | 1020.6 |
| 20260904030220 | 73 | 297 | 6.0 | 9.0 | 0.00 | 0.00 | 0.00 | 36 | 1020.6 |
| 20260904025721 | 74 | 312 | 6.0 | 10.0 | 0.00 | 0.00 | 0.00 | 35 | 1020.6 |
| 20260904025220 | 75 | 328 | 6.0 | 10.0 | 0.00 | 0.00 | 0.00 | 35 | 1020.6 |
| 20260904024723 | 75 | 6 | 7.0 | 10.0 | 0.00 | 0.00 | 0.00 | 35 | 1020.6 |